Simultaneous Nadir Overpasses (SNOs) Predictions

Prediction of SNOs between AQUA and NOAA-19 Satellite Orbit:

Table of predicted SNOs for the next 14.0 days since TLE Epoch: 11/28/2020
Index Date (AQUA) Time (AQUA) Lat,Lon (AQUA) SZA (AQUA ) Date (NOAA-19) Time (NOAA-19) Lat,Lon (NOAA-19) SZA (NOAA-19 ) Distance(km) Time Diff (sec)
1 11/30/2020 18:19:36 -79.35, 59.23 78.11 11/30/2020 18:19:41 -79.35, 59.30 78.11 1.65 5
2 12/02/2020 23:53:21 79.35, 155.80 102.24 12/02/2020 23:52:51 79.32, 155.89 102.22 3.22 30
3 12/03/2020 00:42:47 -79.36, -36.63 77.74 12/03/2020 00:43:55 -79.35, -36.66 77.77 1.43 68
4 12/05/2020 05:27:03 -79.30,-107.31 77.52 12/05/2020 05:26:09 -79.33,-107.28 77.48 3.72 54
5 12/05/2020 06:16:31 79.33, 60.16 102.52 12/05/2020 06:17:05 79.33, 60.01 102.53 3.18 34
6 12/07/2020 11:50:14 -79.32, 156.77 77.22 12/07/2020 11:50:23 -79.33, 156.72 77.21 1.56 9
7 12/09/2020 17:23:58 79.30,-106.53 102.99 12/09/2020 17:23:34 79.31,-106.68 103.02 3.23 24
8 12/09/2020 18:13:25 -79.34, 60.82 76.95 12/09/2020 18:14:36 -79.35, 60.97 76.97 3.13 71
9 12/11/2020 22:57:41 -79.30, -9.96 76.81 12/11/2020 22:56:51 -79.30, -9.99 76.79 0.55 50
